Weather History for Oelwein, IA

Change the Weather History Date:

Tuesday, September 17, 2013

  Actual Average Record
Temperature  
Mean Temperature 56 °F -  
Max Temperature 64 °F 72 °F 93 °F (1988)
Min Temperature 48 °F 50 °F 38 °F (1980)
Degree Days  
Heating Degree Days 9    
Growing Degree Days 6 (Base 50)    
Moisture  
Dew Point 53 °F    
Average Humidity 87    
Maximum Humidity 94    
Minimum Humidity 72    
Precipitation  
Precipitation 0.04 in - - ()
Sea Level Pressure  
Sea Level Pressure 30.18 in    
Wind  
Wind Speed 8 mph (SE)    
Max Wind Speed 14 mph    
Max Gust Speed 20 mph    
Visibility 10 miles    
Events Rain    
Averages and records for this station are not official NWS values.
T = Trace of Precipitation, MM = Missing Value Source: NWS Daily Summary

Daily Weather History Graph

Daily Weather History Graph

Search for Another Location

Airport:

Trip Planner

Search our weather history database for the weather conditions in past years. The results will help you decide how hot, cold, wet, or windy it might be!

Date:

Astronomy

Sep. 17, 2013 Rise Set
Actual Time 6:50 AM CDT 7:13 PM CDT
Civil Twilight 6:21 AM CDT 7:41 PM CDT
Nautical Twilight 5:48 AM CDT 8:15 PM CDT
Astronomical Twilight 5:14 AM CDT 8:49 PM CDT
Moon 6:02 PM CDT (9/17) 4:43 AM CDT (9/17)
Length of Visible Light 13h 20m
Length of Day
12h 23m
Waxing Gibbous, 96% of the Moon is Illuminated
Sep 17
Waxing Gibbous
Sep 19
Full
Sep 26
Last Quarter
Oct 4
New
Oct 11
First Quarter

Hourly Weather History & Observations

Time (CDT) Temp. Dew Point Humidity Pressure Visibility Wind Dir Wind Speed Gust Speed Precip Events Conditions
12:15 AM 50.0 °F 46.4 °F 87% 30.31 in 10.0 mi ESE 5.8 mph - N/A   Overcast
12:35 AM 50.0 °F 44.6 °F 82% 30.31 in 10.0 mi SE 6.9 mph - N/A   Mostly Cloudy
12:55 AM 50.0 °F 46.4 °F 87% 30.31 in 10.0 mi ESE 6.9 mph - N/A   Partly Cloudy
1:15 AM 50.0 °F 46.4 °F 87% 30.31 in 10.0 mi ESE 8.1 mph - N/A   Clear
1:35 AM 50.0 °F 46.4 °F 87% 30.30 in 10.0 mi ESE 8.1 mph - N/A   Clear
1:55 AM 50.0 °F 46.4 °F 87% 30.30 in 10.0 mi SE 8.1 mph - N/A   Clear
2:15 AM 50.0 °F 46.4 °F 87% 30.31 in 10.0 mi SE 9.2 mph 16.1 mph N/A   Clear
2:35 AM 50.0 °F 46.4 °F 87% 30.30 in 10.0 mi SE 9.2 mph 16.1 mph N/A   Clear
2:55 AM 50.0 °F 46.4 °F 87% 30.30 in 10.0 mi SE 9.2 mph 17.3 mph N/A   Clear
3:35 AM 50.0 °F 46.4 °F 87% 30.30 in 10.0 mi SE 9.2 mph 15.0 mph N/A   Clear
3:55 AM 50.0 °F 46.4 °F 87% 30.29 in 10.0 mi SE 8.1 mph - N/A   Clear
4:15 AM 48.2 °F 46.4 °F 93% 30.29 in 10.0 mi SE 8.1 mph - N/A   Clear
4:35 AM 48.2 °F 46.4 °F 93% 30.28 in 10.0 mi SE 8.1 mph - N/A   Clear
4:55 AM 48.2 °F 46.4 °F 93% 30.28 in 10.0 mi SE 9.2 mph - N/A   Partly Cloudy
5:15 AM 48.2 °F 46.4 °F 93% 30.28 in 10.0 mi SE 10.4 mph - N/A   Mostly Cloudy
5:35 AM 48.2 °F 46.4 °F 93% 30.28 in 10.0 mi SE 10.4 mph 16.1 mph N/A   Partly Cloudy
5:55 AM 48.2 °F 46.4 °F 93% 30.27 in 10.0 mi SE 9.2 mph - N/A   Scattered Clouds
6:15 AM 48.2 °F 46.4 °F 93% 30.27 in 10.0 mi SE 8.1 mph 15.0 mph N/A   Partly Cloudy
6:35 AM 48.2 °F 46.4 °F 93% 30.26 in 10.0 mi SE 6.9 mph - N/A   Partly Cloudy
6:55 AM 50.0 °F 46.4 °F 87% 30.27 in 10.0 mi SE 6.9 mph 12.7 mph N/A   Partly Cloudy
7:15 AM 50.0 °F 46.4 °F 87% 30.27 in 10.0 mi SE 8.1 mph - N/A   Partly Cloudy
7:35 AM 50.0 °F 46.4 °F 87% 30.27 in 10.0 mi SE 8.1 mph 15.0 mph N/A   Clear
7:55 AM 50.0 °F 48.2 °F 94% 30.27 in 10.0 mi Variable 4.6 mph 12.7 mph N/A   Clear
8:15 AM 50.0 °F 48.2 °F 94% 30.27 in 10.0 mi SE 6.9 mph - N/A   Partly Cloudy
8:35 AM 51.8 °F 48.2 °F 88% 30.27 in 10.0 mi SE 8.1 mph - N/A   Partly Cloudy
8:55 AM 51.8 °F 48.2 °F 88% 30.26 in 10.0 mi SE 9.2 mph - N/A   Clear
9:15 AM 53.6 °F 50.0 °F 88% 30.25 in 10.0 mi SE 9.2 mph - N/A   Clear
9:35 AM 53.6 °F 50.0 °F 88% 30.24 in 10.0 mi SE 6.9 mph - N/A   Clear
9:55 AM 53.6 °F 50.0 °F 88% 30.24 in 10.0 mi SE 9.2 mph - N/A   Partly Cloudy
10:15 AM 55.4 °F 50.0 °F 82% 30.24 in 10.0 mi SE 9.2 mph - N/A   Clear
10:35 AM 55.4 °F 51.8 °F 88% 30.24 in 10.0 mi SSE 10.4 mph - N/A   Clear
10:55 AM 55.4 °F 51.8 °F 88% 30.24 in 10.0 mi SSE 10.4 mph - N/A   Clear
11:15 AM 55.4 °F 51.8 °F 88% 30.23 in 10.0 mi SSE 10.4 mph 16.1 mph N/A   Mostly Cloudy
11:35 AM 57.2 °F 51.8 °F 82% 30.23 in 10.0 mi SE 10.4 mph - N/A   Overcast
11:55 AM 59.0 °F 53.6 °F 82% 30.22 in 10.0 mi SE 8.1 mph - N/A   Overcast
12:15 PM 60.8 °F 53.6 °F 77% 30.21 in 10.0 mi SSE 9.2 mph 15.0 mph N/A   Overcast
12:35 PM 60.8 °F 53.6 °F 77% 30.21 in 10.0 mi SSE 11.5 mph - N/A   Overcast
12:55 PM 60.8 °F 53.6 °F 77% 30.20 in 10.0 mi SSE 10.4 mph 19.6 mph N/A   Overcast
1:15 PM 60.8 °F 53.6 °F 77% 30.19 in 10.0 mi SE 9.2 mph 16.1 mph N/A   Overcast
1:35 PM 62.6 °F 53.6 °F 72% 30.18 in 10.0 mi Variable 6.9 mph 16.1 mph N/A   Overcast
1:55 PM 60.8 °F 53.6 °F 77% 30.18 in 6.0 mi SE 9.2 mph 15.0 mph N/A Rain Light Rain
2:15 PM 59.0 °F 55.4 °F 88% 30.17 in 2.0 mi SE 9.2 mph - N/A Rain Light Rain
2:35 PM 59.0 °F 57.2 °F 94% 30.16 in 2.0 mi SE 8.1 mph - N/A   Light Drizzle
2:55 PM 59.0 °F 57.2 °F 94% 30.15 in 3.0 mi ESE 8.1 mph - 0.03 in Rain Light Rain
3:15 PM 59.0 °F 57.2 °F 94% 30.13 in 4.0 mi ESE 8.1 mph - N/A   Light Drizzle
3:35 PM 60.8 °F 57.2 °F 88% 30.13 in 9.0 mi SE 6.9 mph 15.0 mph N/A   Light Drizzle
3:55 PM 60.8 °F 57.2 °F 88% 30.12 in 9.0 mi SE 9.2 mph - 0.01 in   Overcast
4:15 PM 60.8 °F 57.2 °F 88% 30.11 in 10.0 mi SE 9.2 mph - N/A   Overcast
4:35 PM 62.6 °F 57.2 °F 82% 30.11 in 10.0 mi SE 8.1 mph - N/A   Overcast
4:55 PM 62.6 °F 57.2 °F 82% 30.10 in - SE 8.1 mph - N/A   Overcast
5:15 PM 62.6 °F 57.2 °F 82% 30.09 in 10.0 mi SE 8.1 mph - N/A   Overcast
5:35 PM 62.6 °F 57.2 °F 82% 30.09 in 10.0 mi SE 8.1 mph - N/A   Overcast
5:55 PM 62.6 °F 57.2 °F 82% 30.08 in 10.0 mi SE 10.4 mph - N/A   Overcast
6:15 PM 62.6 °F 57.2 °F 82% 30.07 in 10.0 mi SE 8.1 mph - N/A   Overcast
6:35 PM 62.6 °F 57.2 °F 82% 30.07 in 10.0 mi SSE 9.2 mph - N/A   Overcast
6:55 PM 62.6 °F 57.2 °F 82% 30.06 in 10.0 mi SSE 9.2 mph - N/A   Overcast
7:15 PM 62.6 °F 57.2 °F 82% 30.06 in 10.0 mi SE 9.2 mph - N/A   Overcast
7:35 PM 62.6 °F 57.2 °F 82% 30.05 in 10.0 mi SSE 8.1 mph - N/A   Overcast
7:55 PM 62.6 °F 57.2 °F 82% 30.05 in 10.0 mi SSE 9.2 mph - N/A   Overcast
8:15 PM 62.6 °F 59.0 °F 88% 30.05 in 10.0 mi SSE 10.4 mph - N/A   Overcast
8:35 PM 62.6 °F 59.0 °F 88% 30.05 in 10.0 mi SSE 9.2 mph 15.0 mph N/A   Overcast
8:55 PM 62.6 °F 59.0 °F 88% 30.04 in 10.0 mi SSE 10.4 mph - N/A   Overcast
9:15 PM 62.6 °F 59.0 °F 88% 30.04 in 10.0 mi SSE 10.4 mph - N/A   Overcast
9:35 PM 62.6 °F 59.0 °F 88% 30.04 in 10.0 mi SSE 13.8 mph - N/A   Overcast
9:55 PM 62.6 °F 60.8 °F 94% 30.04 in 10.0 mi SSE 12.7 mph 18.4 mph N/A   Overcast
10:15 PM 62.6 °F 60.8 °F 94% 30.04 in 10.0 mi SSE 13.8 mph - N/A   Overcast
10:35 PM 62.6 °F 60.8 °F 94% 30.04 in 10.0 mi SSE 10.4 mph - N/A   Overcast
10:55 PM 64.4 °F 60.8 °F 88% 30.04 in 10.0 mi SSE 10.4 mph 17.3 mph N/A   Overcast
11:15 PM 64.4 °F 60.8 °F 88% 30.04 in 10.0 mi SSE 10.4 mph 16.1 mph N/A   Overcast
11:35 PM 64.4 °F 60.8 °F 88% 30.04 in 10.0 mi South 9.2 mph - N/A   Overcast
11:55 PM 64.4 °F 60.8 °F 88% 30.04 in 10.0 mi South 12.7 mph - N/A   Overcast